RH
65 65 66 69 70 70 68 69 74 76 74 70 73 76 79 82 82 92 99 87 95 100 94 91 82 88 81 89 96 97 95 98 99 99 99 96 98 89 98 94 95 91 95 96 95 96 94 63 62 58 52 49 48 48
64 64 65 66 67 70 70 72 75 78 76 74 74 76 77 79 84 87 99 96 94 100 100 91 82 78 68 72 96 99 90 98 95 99 99 98 95 95 82 93 80 98 93 97 90 87 81 70 64 58 53 52 46 49
62 62 62 63 66 68 74 74 76 79 77 75 74 75 74 77 81 85 98 98 98 100 100 100 87 68 77 77 69 92 97 79 91 89 98 99 99 98 98 91 97 76 91 96 94 93 76 63 64 60 57 51 49 46
62 62 68 70 71 74 76 77 75 75 78 78 74 75 76 81 82 87 98 96 97 100 99 90 75 78 70 74 76 76 74 75 85 96 99 98 98 94 97 77 87 65 87 80 74 71 63 70 63 59 54 56 52 48
68 68 69 71 69 70 75 75 78 77 77 74 75 78 80 81 89 95 97 94 92 92 97 94 84 75 80 84 86 87 91 94 98 94 97 92 96 96 97 99 96 76 65 68 63 58 58 57 55 48 52 56 55 56
67 66 66 66 66 65 67 68 74 75 70 72 74 79 80 81 84 96 100 96 91 95 98 97 87 85 88 88 89 93 97 96 96 98 95 92 90 95 98 96 61 62 60 60 69 72 70 75 65 48 49 48 44 50
75 78 78 78 78 78 73 66 68 72 71 72 73 73 80 86 96 100 96 93 88 97 99 97 95 94 87 89 95 96 97 99 99 98 98 89 98 90 98 94 76 73 60 58 54 52 90 87 92 92 95 61 49 46
71 71 72 72 74 77 75 74 74 69 68 71 72 71 76 88 90 98 94 80 88 99 98 98 96 94 90 99 98 98 99 99 99 98 99 97 98 99 98 83 75 73 67 67 70 68 64 62 68 69 56 50 48 49
67 65 65 64 71 72 73 74 73 75 75 69 70 72 89 97 100 100 83 86 94 93 98 96 97 91 94 98 99 100 99 99 96 98 98 97 97 96 89 92 89 89 90 90 80 75 69 66 64 56 48 48 50 51
64 62 61 63 68 68 68 70 73 70 75 74 90 98 96 100 83 86 98 100 100 100 99 95 98 94 94 99 100 99 98 99 99 93 92 99 97 88 94 93 95 96 94 92 97 85 87 82 78 73 55 55 52 53
66 66 63 62 64 78 90 83 85 69 76 100 99 97 100 94 96 98 99 98 96 98 96 82 92 95 92 97 97 95 97 98 98 90 97 98 98 99 96 97 95 96 95 94 95 93 90 91 93 86 64 58 57 56
69 66 66 63 63 83 92 82 79 90 99 92 91 98 100 98 99 100 98 97 98 94 98 99 96 96 98 96 96 98 97 98 97 96 97 98 98 95 97 97 95 95 95 92 91 96 92 87 91 90 81 71 63 59
69 63 65 66 62 68 93 94 90 87 86 98 96 99 98 98 97 97 98 97 99 97 99 98 97 98 98 98 98 98 98 96 88 98 95 97 97 94 98 97 93 91 90 92 92 90 89 88 85 90 89 79 79 78
67 63 64 68 63 62 72 92 92 94 97 98 97 96 96 99 97 98 98 99 97 98 98 98 99 97 98 98 97 97 95 95 98 100 97 99 98 97 96 91 93 91 93 93 90 90 90 91 91 88 89 92 90 82
66 63 65 66 67 60 59 72 83 93 95 97 97 97 97 96 98 98 98 97 94 95 96 97 97 96 97 97 97 96 97 96 95 96 98 98 93 95 92 82 88 89 91 92 94 94 93 93 94 90 86 92 94 92
51 60 76 65 64 61 50 59 70 90 97 96 95 96 90 97 98 97 96 96 95 94 95 97 97 97 96 96 96 95 96 97 96 97 91 88 86 89 91 86 84 92 92 92 95 94 92 97 95 91 92 93 91 91
60 92 67 63 58 57 64 79 82 93 94 96 98 90 95 96 97 96 95 95 93 96 97 97 97 96 97 97 97 95 98 96 95 93 85 91 93 91 92 86 82 89 93 94 98 94 93 96 99 100 98 83 91 85
92 87 67 62 58 66 86 94 91 94 100 99 97 99 98 100 100 100 100 100 99 100 98 97 96 96 96 98 98 94 94 96 97 96 89 86 91 93 87 91 85 92 92 93 93 91 99 97 98 94 91 90 93 94
81 77 67 60 65 82 89 90 90 100 100 100 99 98 99 99 99 98 99 98 99 99 98 97 96 100 99 98 100 98 97 99 97 93 90 91 91 91 89 92 92 92 93 93 94 92 91 92 92 90 90 92 95 90
67 66 62 65 65 88 87 94 94 96 100 97 98 99 100 99 98 99 99 98 99 100 97 99 100 99 100 99 98 95 94 95 100 96 88 86 96 96 89 89 88 86 89 90 92 88 91 96 94 94 94 94 95 93
76 80 66 76 92 92 96 100 99 100 100 100 100 100 100 99 100 100 100 98 98 100 100 100 99 98 96 97 96 94 96 99 97 97 95 94 83 89 91 89 90 88 91 88 91 89 86 91 87 89 96 89 89 91
93 64 91 81 92 93 94 96 98 97 100 99 99 99 100 100 100 100 100 99 100 99 99 99 98 98 94 97 94 98 92 96 95 99 95 95 96 94 90 88 90 92 89 90 90 90 87 84 87 93 94 92 87 89
69 80 90 88 74 79 90 97 91 98 95 98 100 99 100 100 99 98 100 100 100 98 98 99 97 98 98 92 95 94 94 97 96 94 92 92 90 89 92 90 90 95 93 87 85 91 93 85 86 84 92 89 91 93
70 92 93 93 92 96 96 99 99 99 97 98 100 100 99 100 98 99 100 100 97 98 97 96 98 94 86 89 94 86 88 93 93 88 87 95 92 86 83 86 86 87 90 92 92 91 91 91 85 91 91 93 92 93
67 85 90 98 97 90 99 99 100 97 100 100 100 100 98 99 100 100 100 98 100 98 98 92 89 94 96 89 84 83 84 96 95 93 83 89 93 90 85 80 80 79 83 95 92 92 93 93 94 94 94 94 94 92
100 99 95 100 100 93 100 100 100 100 100 100 100 99 100 99 98 100 100 100 99 99 94 94 95 93 87 88 94 90 88 90 94 94 84 84 94 95 94 93 90 84 89 96 95 94 93 91 93 94 94 92 91 88
100 100 98 81 89 92 95 91 88 97 100 100 100 99 98 100 100 99 99 99 99 91 93 94 95 95 94 91 86 85 90 93 95 94 92 92 92 92 95 95 94 91 92 95 96 95 95 93 93 93 95 94 96 95
100 100 100 98 99 99 100 100 100 100 100 98 98 100 100 95 96 98 100 98 95 93 94 94 95 95 95 93 93 93 90 88 88 86 82 80 82 82 85 95 94 85 88 93 94 95 95 95 95 96 96 96 95 94
100 96 98 99 100 100 100 100 100 100 91 100 99 100 100 98 98 100 98 97 94 96 95 93 89 90 91 91 93 95 95 95 96 94 90 88 85 80 90 95 94 94 94 95 87 86 92 94 96 96 96 96 95 95
100 99 100 100 100 99 98 99 100 100 99 97 94 96 96 98 98 98 99 98 98 97 96 96 95 96 95 95 93 86 82 86 96 96 95 94 93 92 95 95 94 94 94 95 96 95 86 93 92 96 95 96 96 96
99 100 100 100 100 100 99 97 98 85 98 100 100 100 99 99 95 98 100 100 100 98 95 92 92 93 95 94 95 94 89 81 90 92 91 92 96 95 95 95 95 95 95 95 96 96 96 96 95 95 95 95 95 95
98 100 100 100 99 98 98 100 100 100 100 100 100 100 99 100 100 98 98 100 97 94 98 95 95 93 92 94 93 94 91 94 92 93 95 95 96 96 95 95 95 95 95 95 95 95 95 95 95 95 94 95 95 95
100 99 99 99 99 99 98 99 100 99 99 100 100 100 100 100 100 96 97 98 99 99 96 95 94 94 94 95 95 94 92 94 94 91 90 88 87 92 96 94 94 94 94 94 94 94 95 94 95 95 95 95 95 95
Wind_Speed
12 13 14 14 15 16 15 15 16 15 13 11 11 11 11 12 15 11 1 11 7 5 3 5 5 4 3 4 4 3 1 2 2 3 3 4 3 2 2 5 5 5 4 6 7 8 8 7 3 6 3 2 1 1
8 10 11 12 14 15 15 15 15 14 12 10 10 11 12 14 15 13 2 4 5 2 1 2 4 4 4 5 5 3 3 3 4 1 2 2 3 1 5 5 1 5 2 3 4 3 4 8 5 6 5 4 4 1
6 7 9 11 13 15 15 15 14 12 11 10 10 10 9 10 14 14 4 5 3 2 2 2 6 6 4 6 4 4 3 4 3 4 3 3 6 3 3 6 2 5 5 5 1 5 7 11 7 11 9 6 8 7
2 3 4 5 5 5 4 6 7 7 9 9 9 10 8 3 6 9 3 5 4 2 2 5 2 3 2 6 7 6 4 1 3 2 2 4 4 4 4 5 5 8 2 4 8 10 10 11 12 15 13 15 9 7
8 6 5 5 3 2 6 8 9 6 5 5 8 8 7 7 7 5 2 5 5 4 3 3 3 4 3 7 8 5 3 3 2 3 5 6 3 2 4 2 6 4 11 8 11 14 8 13 7 8 6 7 7 8
9 8 8 7 6 3 1 4 4 5 4 3 5 8 9 7 9 5 1 2 5 1 3 1 3 0 4 4 4 3 3 3 3 3 4 5 5 3 5 4 9 7 4 6 5 2 7 6 3 9 9 9 10 5
12 14 13 12 11 10 7 2 3 5 6 5 5 6 10 15 4 1 2 2 13 4 2 3 4 3 1 2 0 1 1 1 2 2 5 6 4 4 4 7 9 4 1 0 5 6 1 3 4 6 3 12 10 7
15 14 12 11 10 9 6 5 4 3 5 6 6 6 9 13 9 2 3 8 10 4 2 3 5 2 3 2 1 2 2 3 5 3 3 4 3 3 6 6 5 6 6 3 8 7 5 7 7 9 6 4 7 6
11 10 8 6 7 6 5 6 4 5 5 7 5 11 5 3 1 2 8 8 3 4 5 3 4 5 1 1 2 1 2 3 3 4 4 3 3 5 2 4 5 6 4 8 11 9 4 5 7 7 6 5 4 3
14 14 13 12 13 12 12 12 12 9 8 10 6 4 2 2 3 8 4 1 2 2 1 4 2 4 5 3 2 1 3 4 2 4 2 3 4 5 3 2 4 5 5 6 5 5 7 6 8 9 6 6 4 1
14 14 15 14 14 16 25 14 22 16 13 3 3 2 1 4 3 2 2 2 1 3 4 4 6 4 3 3 4 4 2 3 3 5 4 3 4 2 4 4 5 5 5 5 4 6 6 6 6 4 4 6 5 5
10 12 15 16 16 18 29 7 20 9 3 6 8 5 1 1 2 4 5 2 4 6 0 4 4 3 1 2 3 3 3 2 6 1 2 4 2 1 3 3 5 6 6 7 5 4 6 6 6 4 4 5 5 5
7 11 16 16 16 15 18 22 24 25 11 3 4 4 3 2 4 6 7 3 1 1 2 1 1 2 1 0 3 2 4 4 2 2 5 3 0 2 3 3 3 4 6 5 7 6 6 6 6 6 5 5 5 5
5 9 14 15 15 13 10 13 15 6 3 3 4 4 5 2 3 1 1 1 1 2 2 1 1 2 2 2 2 3 1 2 2 2 5 2 2 2 3 2 2 4 5 4 5 5 6 6 5 5 5 4 4 4
3 6 12 13 13 11 8 10 9 5 4 3 2 2 3 2 0 2 2 1 4 3 3 0 1 1 2 3 2 1 2 4 5 3 1 1 2 2 3 4 4 5 5 4 3 5 5 4 4 5 4 4 4 4
8 4 7 14 8 12 5 7 6 3 4 4 6 3 3 2 1 2 4 2 3 4 3 2 2 2 4 2 3 4 3 3 1 1 2 3 4 4 5 5 6 5 5 5 5 4 6 4 6 7 6 5 5 5
6 2 13 12 5 6 13 5 4 7 5 4 2 2 2 3 2 2 3 3 4 3 1 2 3 1 2 2 1 3 1 2 3 3 3 2 4 6 5 7 8 7 6 6 5 6 7 5 3 4 9 9 5 7
3 4 12 11 3 4 4 5 5 6 5 2 4 3 2 1 0 2 3 2 3 2 2 1 1 3 2 1 2 2 3 3 2 2 5 7 6 6 7 8 8 7 8 7 8 8 5 7 7 8 8 9 7 6
1 5 9 8 5 5 5 5 5 5 3 1 1 2 2 1 1 1 1 3 1 1 1 3 4 1 1 2 2 3 3 2 5 7 7 7 8 8 8 6 7 8 9 8 8 8 7 8 9 8 7 6 7 7
1 9 8 11 6 5 6 4 3 5 2 3 3 2 1 1 2 2 3 3 2 3 6 4 1 1 1 3 2 5 6 5 3 8 9 5 3 5 9 8 8 10 9 10 8 14 7 6 6 7 7 8 8 8
5 5 8 5 5 7 5 1 4 2 1 3 2 2 1 3 3 3 3 3 5 2 1 2 2 4 4 4 4 4 6 3 6 5 8 11 9 8 9 8 8 8 8 8 8 10 13 8 8 6 5 8 8 7
2 7 3 5 6 5 5 3 3 1 3 2 3 2 3 2 3 3 2 5 1 3 3 2 3 3 5 5 6 5 7 6 8 7 13 12 7 8 8 8 8 9 8 8 8 9 9 8 7 6 7 9 11 7
6 5 5 6 7 7 3 2 5 4 3 3 3 4 3 3 3 2 3 3 3 3 3 3 5 4 6 9 6 7 5 6 6 7 8 7 8 9 9 9 8 9 9 9 7 8 8 13 12 10 8 9 7 7
9 7 6 4 4 1 3 5 2 3 4 4 3 2 4 2 3 4 1 2 3 2 2 4 3 6 5 4 4 6 6 5 7 8 7 7 9 9 8 9 9 9 9 10 9 8 8 8 14 8 8 8 8 8
8 8 6 6 4 6 6 5 5 5 2 1 3 3 3 3 3 2 2 4 3 3 3 5 5 4 6 7 7 7 7 5 7 10 10 7 9 9 10 8 8 9 8 9 9 9 8 7 7 7 8 9 10 11
7 5 4 1 4 4 1 2 1 2 1 2 1 3 2 3 4 3 3 3 2 3 6 7 7 7 7 6 8 8 9 7 7 8 10 7 8 9 11 11 11 10 4 4 7 9 9 9 9 11 10 13 17 13
5 4 4 2 1 0 2 2 2 4 2 1 2 3 3 3 3 4 1 1 2 5 6 6 6 6 7 9 8 8 8 7 7 9 11 11 11 10 10 11 11 8 8 7 5 7 9 10 10 9 7 7 6 7
3 2 1 4 3 1 3 2 2 2 3 2 2 1 5 6 4 2 2 2 5 6 6 5 5 6 7 8 8 8 9 8 10 10 9 8 8 8 9 5 6 17 10 8 8 7 7 9 7 5 6 6 7 6
2 3 1 4 4 3 2 3 3 1 1 2 3 2 3 1 2 1 3 4 6 5 5 7 7 6 6 6 6 6 6 7 9 14 17 13 12 9 7 5 6 6 6 6 14 13 11 7 5 5 6 5 6 7
4 2 2 1 1 1 3 2 2 3 1 2 1 3 2 3 2 1 2 4 5 6 6 7 6 6 7 8 10 11 7 6 5 7 10 12 12 12 8 7 7 6 6 6 6 7 11 5 6 5 5 3 2 3
2 2 2 1 2 3 3 2 2 2 2 1 1 2 3 3 3 1 1 2 3 4 5 7 7 6 6 8 8 10 11 7 13 15 14 12 6 6 6 6 6 6 6 6 6 5 5 5 6 6 8 9 10 8
3 1 1 2 3 3 3 2 1 0 1 2 2 1 3 2 2 2 2 3 4 6 10 9 8 9 9 8 8 7 15 11 11 11 15 11 6 4 5 5 5 5 6 6 6 7 7 7 7 8 8 11 11 12
2 2 1 2 4 4 3 3 4 4 2 1 2 1 2 1 4 3 2 2 1 4 7 8 9 8 10 10 10 10 14 10 16 22 24 22 22 13 3 4 6 7 7 6 7 7 8 9 9 9 10 10 11 11
Wind_Direction
220 227 230 233 236 243 242 238 239 235 232 236 241 245 239 232 221 208 219 187 169 195 212 203 201 164 147 160 174 159 354 224 207 248 258 254 253 239 263 353 306 232 223 217 229 244 260 341 17 213 295 355 195 108
221 233 236 237 240 241 242 240 229 228 227 226 239 246 244 241 226 191 178 154 105 132 283 304 280 274 195 154 140 198 210 150 189 175 307 343 305 275 265 269 279 256 222 312 264 258 322 303 249 272 293 284 282 223
225 243 254 259 255 245 234 227 219 215 222 223 230 231 234 238 228 190 134 139 101 163 240 229 215 253 210 197 194 152 289 193 200 180 177 239 250 137 227 238 230 240 193 209 341 219 281 289 260 252 266 256 278 283
254 250 271 265 254 239 210 215 220 228 223 222 225 217 211 211 237 149 148 140 109 119 199 270 149 216 232 179 194 204 194 320 70 81 215 231 222 194 239 248 229 248 164 265 269 275 288 262 262 265 265 267 244 241
67 49 25 11 349 251 223 206 221 214 211 214 218 198 178 178 95 91 86 170 158 143 177 253 331 247 186 176 197 192 177 132 119 265 229 241 242 221 244 227 243 196 253 255 264 262 279 289 311 320 286 284 228 227
62 54 44 37 34 23 241 215 206 196 209 205 212 206 198 169 145 87 206 289 175 126 122 245 290 84 42 94 129 177 184 181 181 196 232 233 247 232 234 233 257 246 236 246 247 345 269 283 337 11 336 359 322 277
59 60 52 46 40 35 26 353 220 218 206 212 209 200 163 141 103 161 209 178 180 97 123 351 319 303 144 106 354 72 98 203 203 230 224 238 236 227 249 260 262 228 222 75 30 340 311 334 295 322 338 319 308 303
61 52 45 37 27 17 15 352 337 262 218 223 205 178 175 142 92 94 290 143 124 96 79 125 267 335 178 156 242 212 217 179 203 208 235 230 212 218 247 254 30 15 327 108 5 337 278 287 282 263 240 253 295 318
41 25 18 5 11 350 322 311 299 275 254 178 147 103 84 56 94 241 200 140 52 127 161 164 161 246 111 236 153 62 190 238 196 217 217 178 216 225 306 342 354 5 340 307 316 299 351 354 336 323 303 302 286 291
33 25 17 9 359 344 312 274 247 241 233 153 66 66 151 231 332 109 43 136 159 184 175 219 151 238 142 184 215 127 194 233 221 233 110 221 246 88 29 340 294 300 300 315 333 336 352 338 328 316 330 324 323 270
25 20 14 9 357 348 339 288 220 197 201 92 122 121 358 332 71 58 161 146 212 226 202 218 202 172 236 149 196 199 217 230 219 253 161 243 256 273 315 329 318 317 324 312 242 272 282 277 281 296 357 9 27 42
15 19 15 10 6 5 4 33 142 155 110 142 116 104 95 134 171 163 200 214 178 222 177 166 222 182 270 116 150 204 216 186 245 142 87 267 257 29 352 325 333 359 7 12 10 359 355 5 354 360 30 26 32 44
38 26 21 15 15 18 27 41 87 104 97 66 67 106 136 197 204 197 200 266 236 301 193 97 342 151 3 102 215 202 194 227 98 133 227 220 34 356 326 329 359 11 16 6 4 4 2 4 18 27 22 16 26 41
60 33 19 20 15 19 40 42 31 30 57 83 147 169 190 248 236 146 162 173 307 346 357 100 261 181 197 206 240 222 156 118 173 222 234 247 247 282 313 325 25 334 346 339 327 330 335 346 339 347 3 355 13 22
72 45 26 12 10 15 30 48 52 37 42 59 35 191 63 158 134 224 247 326 17 316 315 341 290 238 183 253 216 195 196 241 199 231 73 236 250 261 324 335 331 322 311 299 284 298 295 303 306 305 315 324 322 310
350 57 6 4 22 15 24 32 27 67 55 55 39 50 334 87 339 50 1 48 17 329 292 258 255 227 221 229 198 220 203 218 69 40 27 6 354 332 318 312 304 286 284 285 286 278 294 292 289 284 292 270 263 255
45 34 347 357 22 45 32 66 48 47 87 53 12 34 328 51 46 50 13 3 327 294 307 310 245 221 328 242 271 23 54 12 354 332 331 334 300 297 287 292 298 295 293 285 274 279 273 258 297 313 288 286 251 256
49 322 354 357 37 53 36 35 75 71 55 326 85 296 64 73 46 358 313 314 26 3 14 118 88 44 10 344 348 36 1 326 286 298 308 303 296 285 283 281 281 268 271 272 270 277 266 285 279 270 265 271 271 260
42 12 7 14 61 85 69 11 67 99 210 247 347 358 94 121 184 235 297 313 263 230 52 32 62 62 357 31 329 305 298 284 303 307 293 280 276 283 289 290 284 281 273 269 268 270 267 253 257 265 263 261 262 269
193 26 16 30 48 77 54 352 50 90 123 230 44 17 93 191 270 346 351 3 25 60 36 49 37 27 263 258 230 284 284 284 295 303 297 283 267 281 286 284 283 284 284 284 271 275 272 262 249 244 245 246 253 252
38 344 19 55 45 60 90 22 32 151 160 103 256 75 263 12 25 12 334 336 55 82 20 246 244 260 259 251 260 273 278 249 271 251 281 294 298 281 285 282 273 273 274 277 278 280 289 279 277 266 239 263 260 256
285 9 53 23 75 28 76 326 132 252 78 199 34 56 41 26 331 309 280 50 94 239 196 223 257 273 300 289 280 228 262 265 263 260 281 289 288 291 286 284 288 280 274 270 268 269 271 271 267 252 251 256 263 256
20 37 40 32 69 44 270 24 68 355 86 288 23 40 352 348 249 348 49 212 239 237 230 240 259 249 259 284 280 275 256 257 273 273 277 277 274 275 275 276 270 273 277 275 263 262 262 267 274 278 270 269 267 257
33 51 51 56 60 204 6 14 22 49 31 34 55 4 325 264 315 51 91 268 254 293 324 289 290 310 302 284 286 300 304 297 294 289 287 289 289 289 283 281 279 270 266 272 273 273 271 268 270 275 269 265 263 260
67 340 63 352 338 55 34 11 350 48 65 309 70 338 305 22 60 51 214 269 297 291 291 313 317 309 300 298 300 305 308 298 302 301 298 285 283 288 291 287 281 273 271 270 270 270 272 273 271 266 263 261 261 258
70 302 76 252 317 80 199 58 20 205 114 27 260 259 34 76 60 252 247 252 276 305 328 324 319 315 308 300 303 310 312 310 299 289 291 295 295 291 293 297 300 299 295 287 290 284 281 278 274 270 268 272 280 292
58 323 315 355 273 71 38 20 31 92 94 161 267 17 62 70 257 254 307 349 308 317 311 305 302 297 297 303 302 302 303 299 283 279 287 289 288 284 283 289 303 313 298 293 293 282 281 280 279 278 279 278 265 263
167 35 77 300 18 31 137 55 107 173 231 256 75 35 164 188 226 253 234 276 311 311 306 303 298 292 295 300 301 304 306 308 303 295 283 273 266 284 291 287 301 317 324 307 296 286 278 287 285 262 269 274 283 275
30 326 60 342 350 27 150 161 213 245 17 111 145 236 243 253 218 309 311 320 315 309 321 326 326 323 309 305 302 305 307 313 324 325 329 320 323 325 330 322 313 310 309 307 317 323 305 314 299 257 258 267 279 283
308 346 52 27 89 275 252 158 238 263 253 186 264 316 304 307 272 275 352 339 345 334 318 307 308 324 320 328 326 330 330 315 302 323 313 306 308 305 323 325 325 326 323 323 320 322 342 2 341 346 343 318 315 347
342 34 19 277 248 250 236 287 309 254 26 3 329 157 250 285 306 269 7 287 302 305 321 346 336 330 328 329 330 326 327 324 332 324 315 307 303 330 331 331 332 335 333 338 344 350 354 1 7 9 18 25 25 35
8 101 113 319 295 301 18 36 308 306 305 29 297 342 329 6 298 282 307 7 348 359 345 347 335 323 321 312 302 296 313 315 319 318 321 329 349 359 345 342 345 350 353 359 6 15 17 26 29 27 31 37 40 38
12 27 14 360 346 355 327 35 14 341 353 325 295 241 225 220 235 267 302 97 240 295 326 322 315 310 303 305 309 313 330 317 326 343 345 356 3 11 41 8 6 7 10 20 23 24 28 33 37 36 40 44 45 46